Vertical_Velocity
1 -0 0 -0 0 1 -1 -1 0 2 0 -1 0 1 1 0 -1 -1 -0 -1 -1 -1 0 1 0 -1 0 -1 -1 -1 -0 0 0 1 0 -1 -1 0 -1 -0 0 -1 -0 0 -1 0 -1
0 1 -0 1 2 2 3 3 2 -0 -1 0 0 0 0 1 -0 -1 -2 -1 -0 -1 0 0 -0 0 -1 -1 -1 -0 0 -1 -1 0 0 0 -0 0 -0 -0 -2 0 0 -1 1 -0 -0
-0 -0 0 2 1 2 2 3 3 3 1 1 1 1 0 1 -1 -0 -0 -0 -0 0 -0 -1 0 -0 -0 -2 -1 -0 0 -0 -1 -0 -1 -1 -0 0 0 -0 -0 -0 -1 -2 -0 -0 -1
-1 -1 1 2 1 1 1 3 1 0 1 2 2 1 0 -1 -1 -0 -1 0 1 1 0 -0 -1 -1 -1 -1 -0 0 -0 0 0 -0 -0 -0 0 0 0 0 -0 -1 -4 -3 -2 1 -0
-1 -1 0 0 1 -0 -1 0 -2 -0 1 1 -0 -1 -1 -0 -1 -0 0 1 1 1 0 0 1 -1 -1 -0 -1 -1 -0 0 -0 -0 0 1 0 -0 -0 -2 -4 -3 -1 -0 -5 -1 -1
0 1 1 1 1 0 0 -0 -1 -0 2 2 2 3 1 0 0 0 -0 1 1 1 0 1 1 -0 -0 -1 -0 -0 -1 -0 -0 -0 0 0 -1 -2 -2 -4 -4 -2 -0 -1 -0 -3 2
2 1 2 -0 0 0 -1 -1 -1 1 3 2 2 1 1 0 -1 -1 0 0 -0 -0 0 -0 1 1 -0 -0 0 -0 -1 -0 -1 -1 -1 0 -6 -2 -2 -1 -1 -1 1 0 -2 -2 2
-1 -1 -1 -0 1 1 0 -2 -0 0 1 0 -0 -1 -0 -1 -1 -1 -0 -1 -1 0 -4 -0 -0 0 0 0 -1 -1 -1 0 -0 -1 0 -6 -2 -2 -0 0 -0 0 0 -3 -4 0 0
-0 -1 -0 0 -1 -2 -1 -1 -0 -1 0 -1 -1 -1 -1 -1 0 2 -2 -2 -1 -1 -0 -0 1 0 -0 0 -0 0 -0 -0 -1 0 -0 -3 -3 -0 0 0 1 -1 -1 -1 -2 -2 -2
-0 0 -0 -0 -1 -1 -2 -1 -1 -2 -1 -2 -2 -3 -1 -2 -3 -2 -2 -1 -1 -1 -6 -4 -0 -0 0 -0 -1 -0 -1 -0 0 -2 -0 -2 -0 -1 1 -0 -3 1 -1 -0 0 -2 -4
0 -0 1 1 0 1 0 -1 -1 -1 -2 -1 -1 -1 -2 -2 -0 -2 -0 -0 0 1 -8 -4 -0 0 0 0 1 -0 1 1 -1 -1 -4 -14 0 1 1 -5 -2 -8 -0 0 -0 0 -1
0 1 0 -1 -1 -1 -2 -2 -2 -2 -1 -0 -0 -1 -1 0 0 1 2 1 1 -18 -14 -1 -0 -1 -0 1 0 1 1 1 1 0 0 -3 0 -1 -6 -0 -0 0 -1 -1 -1 -1 -2
-0 -1 -2 -1 -1 -1 -1 -1 -2 -3 -4 -2 -2 -2 -2 -1 -1 0 1 0 -15 -7 -6 -2 -2 0 -0 -1 -1 1 -0 0 -3 -1 -1 -1 -1 -0 -1 0 -1 -1 -3 -4 -7 -4 -8
-2 -1 -1 -2 -1 -0 -2 -2 -3 -3 -4 -4 -3 -1 -0 -0 0 -0 -1 -10 1 -6 -2 -0 -0 0 -1 -1 -1 0 -0 -1 1 -0 -1 -1 -12 -1 -1 -3 -6 -2 -5 -6 -1 -2 -5
1 1 0 -0 -1 -2 -2 -2 -2 -2 -3 -7 -5 -2 -1 -1 -1 0 1 -3 -10 -2 -2 -0 -1 1 -1 0 -0 1 -0 -1 -2 -3 -7 -1 -5 1 0 0 -6 -1 -1 -6 -2 -1 0
-1 -2 -3 -2 -1 -1 -1 -1 -2 -3 -2 -5 -7 -5 -1 0 -0 -0 -5 -5 -2 -0 -0 0 -1 -3 -0 -1 1 0 -0 -5 -1 -1 -1 -3 -4 -1 1 -0 0 -6 -4 -8 -2 -1 -0
-1 0 0 -0 -0 0 -1 -2 -4 -6 -3 -3 -5 -7 1 1 1 2 -4 -5 -0 -1 -0 -3 -1 0 -2 -2 -1 -1 -6 -7 0 0 0 -1 -3 -5 -1 -2 -6 -2 1 1 -2 -3 -1
-1 -3 -4 -4 -4 -5 -3 -5 -5 -6 -5 0 -3 -5 1 1 -2 1 -1 -3 1 -1 1 0 0 0 -1 -0 0 1 -3 -3 0 -3 -1 -3 -3 -0 -12 -2 -0 -1 -3 -3 -1 -4 -1
4 -3 -4 -3 -3 -3 -4 -3 -1 -4 -4 -5 -1 -6 2 4 -2 -1 -2 -1 0 1 -1 0 -0 -1 -0 -1 -1 1 -0 -1 0 -1 -3 -5 -3 -2 -14 -4 -2 0 -0 -1 -1 -1 -4
2 4 -0 -0 -1 2 -0 -6 -2 -4 -4 -1 1 -3 -2 4 3 -0 -0 -2 -1 0 -1 0 -2 1 1 1 -0 -3 -0 -1 0 -1 1 0 0 -5 -6 -9 -2 1 0 0 0 2 -4
-4 -4 -5 -3 -3 -3 3 -3 2 -1 -1 -2 2 -5 -1 -4 -4 0 1 0 0 -2 -0 1 -1 -1 -3 1 1 -2 -1 -1 1 0 1 0 1 1 -2 -0 2 1 1 -1 5 -10 7
-1 0 -1 -3 -4 -1 -0 1 2 -2 1 0 2 5 1 -0 1 3 -0 -3 -0 -2 2 -2 2 -1 1 1 -5 -3 2 0 -2 2 0 0 -2 1 -5 -1 2 1 -1 0 -0 -3 3
-1 -1 -1 -3 -2 -1 0 -2 -7 -0 -2 -3 5 6 3 -4 -0 7 -6 -5 -5 1 -8 -2 -1 3 3 -10 -1 -7 -3 -0 -3 -1 -0 0 -0 2 -13 0 1 7 -9 -3 -2 -0 -0
-2 -3 -3 -2 -1 -2 -2 -2 -0 0 -3 3 -0 -2 3 -4 4 2 1 5 0 -4 2 -1 4 3 -6 8 1 -1 5 3 5 -4 3 2 2 1 -4 2 5 -7 0 1 -1 1 1
0 -0 0 -1 -2 -2 -0 -1 -1 -2 -2 -4 1 4 5 -1 2 -4 -2 2 -3 -2 3 10 -12 -11 9 3 3 2 1 3 -4 -4 1 2 2 1 2 -0 -6 2 -0 -1 -2 1 0
-0 -1 -1 -1 -2 -1 -0 0 -3 -1 -2 -5 2 3 7 7 -2 18 6 7 2 -1 -4 -14 -4 -6 9 1 2 -0 -3 -3 -3 -2 0 4 3 6 4 4 -1 1 2 0 -0 2 0
-3 -5 1 1 -0 -1 1 1 1 1 2 -4 -0 6 4 6 -22 13 2 6 2 -0 2 -1 -3 -4 14 -0 2 0 -1 -3 -1 -0 -1 1 2 -2 -1 0 2 1 0 0 7 -1 3
-1 -0 1 2 -2 -1 -1 -1 -1 1 0 1 -2 4 7 3 -15 -13 2 5 -9 4 4 -14 -5 2 -0 3 3 -3 2 -5 2 -4 -3 -3 1 -1 3 7 1 -1 3 -1 4 5 -1
-3 -2 -5 -3 -2 -2 -2 -2 -1 2 -1 6 -7 5 3 7 -20 -11 -4 -2 14 10 13 -6 -6 0 -1 -0 -3 1 0 -0 -0 -1 1 -0 4 4 3 5 3 5 1 4 2 -2 2
Height
1551 1548 1545 1543 1541 1537 1534 1531 1527 1524 1522 1520 1519 1519 1518 1517 1517 1517 1517 1517 1517 1516 1516 1515 1514 1513 1513 1513 1513 1511 1509 1509 1509 1508 1507 1507 1507 1507 1508 1508 1508 1508 1508 1508 1508 1507 1507
1553 1551 1548 1546 1543 1540 1536 1533 1530 1527 1524 1522 1521 1519 1518 1518 1517 1517 1517 1517 1516 1516 1516 1515 1514 1513 1513 1513 1511 1510 1509 1509 1509 1508 1507 1507 1507 1507 1507 1507 1508 1508 1508 1507 1506 1506 1505
1555 1553 1551 1548 1545 1542 1539 1535 1532 1529 1526 1524 1522 1520 1519 1518 1517 1517 1517 1517 1516 1515 1515 1514 1513 1513 1512 1513 1511 1510 1509 1509 1508 1508 1507 1507 1507 1508 1507 1508 1508 1508 1509 1506 1503 1504 1505
1557 1555 1552 1549 1547 1543 1540 1537 1534 1530 1528 1525 1522 1520 1519 1517 1517 1516 1516 1516 1515 1515 1513 1513 1513 1512 1511 1511 1510 1509 1509 1508 1508 1508 1507 1507 1506 1507 1507 1508 1508 1509 1511 1515 1503 1504 1505
1558 1556 1554 1551 1548 1545 1542 1539 1535 1532 1529 1526 1523 1520 1518 1516 1516 1515 1515 1514 1514 1513 1513 1512 1512 1511 1510 1510 1509 1509 1508 1507 1507 1507 1507 1506 1506 1507 1508 1511 1517 1517 1520 1514 1508 1504 1506
1559 1557 1554 1551 1549 1546 1543 1540 1538 1535 1531 1527 1524 1521 1518 1516 1515 1514 1513 1512 1511 1511 1511 1511 1511 1513 1510 1509 1508 1507 1507 1506 1506 1506 1506 1507 1506 1509 1512 1516 1526 1518 1519 1515 1514 1504 1505
1559 1557 1554 1552 1549 1547 1544 1542 1539 1535 1532 1528 1524 1521 1518 1516 1515 1513 1512 1511 1513 1512 1509 1509 1509 1508 1508 1508 1507 1506 1506 1506 1506 1506 1508 1507 1513 1515 1509 1510 1510 1512 1516 1517 1510 1503 1504
1559 1556 1554 1552 1550 1547 1544 1541 1538 1535 1531 1527 1524 1521 1518 1516 1514 1512 1511 1510 1511 1512 1508 1507 1507 1507 1506 1506 1506 1505 1506 1507 1506 1507 1506 1512 1514 1506 1506 1508 1510 1512 1515 1516 1506 1502 1504
1558 1556 1554 1552 1549 1546 1544 1541 1538 1535 1531 1528 1525 1522 1519 1516 1515 1513 1511 1511 1511 1510 1510 1506 1506 1506 1506 1507 1505 1505 1505 1505 1505 1507 1507 1511 1505 1505 1506 1508 1510 1511 1512 1510 1508 1506 1501
1558 1556 1553 1551 1548 1546 1543 1540 1537 1534 1531 1528 1525 1522 1520 1516 1517 1514 1513 1512 1511 1510 1516 1508 1506 1505 1505 1504 1504 1503 1503 1505 1504 1505 1505 1507 1503 1504 1506 1508 1509 1511 1503 1504 1506 1511 1514
1557 1555 1552 1550 1547 1545 1542 1539 1536 1533 1530 1528 1525 1522 1519 1517 1516 1515 1515 1512 1511 1511 1543 1508 1505 1504 1504 1505 1504 1503 1502 1502 1502 1503 1506 1503 1504 1505 1507 1503 1503 1504 1502 1504 1505 1511 1513
1556 1554 1551 1549 1547 1544 1541 1539 1536 1532 1529 1526 1523 1521 1518 1517 1515 1515 1513 1511 1511 1521 1539 1506 1503 1503 1503 1502 1501 1501 1502 1502 1502 1502 1502 1501 1499 1499 1498 1497 1498 1500 1502 1507 1512 1517 1522
1554 1552 1550 1548 1546 1543 1541 1538 1535 1531 1528 1525 1522 1520 1517 1516 1516 1514 1512 1511 1524 1532 1505 1505 1503 1502 1503 1502 1500 1501 1501 1503 1504 1504 1506 1500 1498 1496 1496 1499 1500 1501 1508 1520 1517 1521 1506
1553 1551 1549 1547 1545 1542 1539 1537 1534 1531 1527 1524 1521 1518 1516 1514 1513 1513 1512 1514 1524 1508 1504 1500 1501 1502 1505 1499 1500 1500 1501 1504 1496 1499 1508 1509 1510 1495 1493 1494 1497 1504 1505 1518 1510 1509 1499
1551 1549 1547 1545 1543 1541 1539 1536 1533 1530 1526 1522 1519 1516 1514 1512 1512 1512 1513 1524 1516 1506 1499 1500 1501 1503 1501 1499 1501 1500 1502 1499 1492 1493 1502 1508 1501 1490 1490 1490 1492 1499 1507 1499 1504 1508 1511
1550 1548 1546 1544 1542 1540 1537 1534 1531 1528 1525 1521 1517 1514 1511 1511 1511 1511 1513 1514 1504 1497 1498 1499 1503 1500 1502 1499 1501 1502 1498 1489 1487 1487 1487 1490 1500 1489 1491 1491 1493 1495 1496 1506 1510 1508 1502
1550 1547 1546 1544 1541 1539 1536 1533 1530 1527 1524 1521 1517 1513 1511 1510 1509 1509 1515 1510 1498 1495 1496 1499 1499 1498 1496 1496 1498 1499 1492 1485 1483 1486 1487 1489 1495 1492 1491 1492 1488 1500 1499 1498 1496 1500 1498
1547 1546 1544 1541 1539 1537 1534 1532 1529 1525 1523 1520 1518 1517 1510 1509 1511 1508 1507 1499 1495 1493 1494 1494 1494 1495 1495 1493 1494 1495 1491 1482 1480 1482 1487 1485 1493 1496 1486 1478 1479 1481 1484 1486 1490 1496 1494
1544 1543 1541 1539 1537 1535 1533 1530 1528 1525 1523 1520 1517 1512 1507 1506 1510 1506 1498 1495 1493 1493 1492 1492 1493 1491 1491 1492 1495 1489 1485 1480 1480 1482 1484 1484 1490 1496 1483 1481 1479 1479 1477 1477 1482 1490 1480
1542 1540 1538 1536 1535 1532 1530 1528 1526 1524 1522 1522 1520 1514 1505 1502 1500 1499 1498 1495 1493 1489 1489 1487 1487 1487 1489 1489 1488 1485 1484 1480 1479 1480 1479 1480 1484 1481 1476 1469 1471 1477 1476 1476 1479 1478 1469
1540 1538 1535 1534 1531 1529 1526 1525 1523 1522 1520 1521 1518 1510 1505 1503 1497 1496 1496 1494 1492 1491 1486 1485 1484 1485 1486 1489 1487 1484 1480 1478 1478 1476 1478 1479 1483 1481 1474 1470 1469 1465 1463 1463 1469 1462 1461
1538 1536 1533 1531 1529 1526 1523 1519 1518 1518 1518 1517 1514 1509 1503 1499 1495 1495 1493 1491 1489 1487 1486 1482 1483 1480 1480 1479 1476 1474 1475 1476 1475 1476 1476 1479 1476 1478 1464 1465 1466 1460 1451 1452 1450 1444 1444
1538 1535 1532 1530 1527 1524 1520 1517 1515 1513 1513 1513 1510 1507 1505 1496 1491 1491 1486 1483 1481 1481 1476 1473 1473 1474 1473 1469 1467 1468 1470 1469 1469 1470 1472 1474 1474 1474 1453 1454 1454 1445 1435 1434 1434 1442 1444
1537 1534 1531 1529 1526 1523 1519 1517 1514 1511 1510 1511 1511 1510 1505 1492 1493 1487 1482 1481 1477 1476 1472 1469 1469 1468 1467 1465 1464 1463 1462 1460 1460 1456 1461 1460 1465 1463 1449 1453 1442 1431 1443 1440 1439 1453 1456
1537 1534 1531 1528 1524 1522 1519 1516 1513 1511 1510 1509 1508 1509 1506 1493 1490 1487 1484 1480 1476 1472 1469 1467 1463 1462 1464 1463 1462 1457 1453 1452 1445 1438 1440 1445 1449 1449 1444 1436 1423 1434 1441 1443 1442 1456 1462
1537 1534 1530 1527 1523 1520 1517 1514 1512 1510 1509 1507 1506 1506 1505 1500 1486 1487 1484 1478 1476 1473 1467 1461 1457 1457 1458 1455 1450 1448 1443 1440 1438 1431 1433 1436 1439 1441 1437 1427 1418 1437 1446 1448 1448 1442 1461
1534 1531 1528 1525 1521 1518 1515 1512 1510 1508 1506 1505 1504 1504 1503 1498 1487 1486 1485 1482 1477 1473 1467 1460 1453 1451 1448 1442 1439 1440 1435 1433 1431 1434 1435 1437 1434 1429 1425 1416 1421 1450 1450 1452 1440 1451 1459
1530 1527 1524 1521 1518 1515 1512 1509 1507 1505 1503 1502 1501 1501 1500 1493 1483 1480 1479 1479 1476 1474 1468 1459 1455 1447 1448 1443 1436 1435 1432 1425 1426 1420 1423 1423 1422 1421 1416 1409 1405 1450 1448 1449 1464 1460 1463
1528 1524 1520 1517 1514 1511 1508 1506 1503 1502 1500 1499 1497 1496 1496 1492 1480 1475 1470 1467 1465 1464 1466 1461 1457 1453 1446 1441 1437 1439 1430 1428 1423 1421 1419 1418 1429 1422 1436 1440 1455 1453 1451 1458 1461 1465 1467